Charlottesville, VA

1:58 AM EDT on April 25, 2018 (GMT -0400)
Charlottesville-Albemarle

Weather History for KCHO - April, 2012

Change the Weather History Date:

Sunday, April 29, 2012

  Actual Average Record
Temperature  
Mean Temperature 61 °F 59 °F  
Max Temperature 74 °F 71 °F 91 °F (1957)
Min Temperature 48 °F 47 °F 32 °F (2001)
Degree Days  
Heating Degree Days 4 7  
Month to date heating degree days 250 301  
Since 1 July heating degree days 3295 4305  
Cooling Degree Days 0 1  
Month to date cooling degree days 22 21  
Year to date cooling degree days 40 23  
Growing Degree Days 10 (Base 50)    
Moisture  
Dew Point 45 °F    
Average Humidity 61    
Maximum Humidity 86    
Minimum Humidity 35    
Precipitation  
Precipitation 0.05 in 0.10 in 1.02 in (2014)
Month to date precipitation 1.36 3.26  
Year to date precipitation 10.01 12.39  
Sea Level Pressure  
Sea Level Pressure 30.19 in    
Wind  
Wind Speed 2 mph (ENE)    
Max Wind Speed 9 mph    
Max Gust Speed 14 mph    
Visibility 9 miles    
Events Rain    
T = Trace of Precipitation, MM = Missing Value Source: NWS Daily Summary

Daily Weather History Graph

Daily Weather History Graph

Search for Another Location

Airport or City:

Astronomy

Apr. 29, 2012 Rise Set
Actual Time 6:19 AM EDT 8:03 PM EDT
Civil Twilight 5:50 AM EDT 8:31 PM EDT
Nautical Twilight 5:16 AM EDT 9:06 PM EDT
Astronomical Twilight 4:40 AM EDT 9:42 PM EDT
Moon 1:00 PM EDT (4/29) 2:01 AM EDT (4/29)
Length of Visible Light 14h 40m
Length of Day
13h 44m
First Quarter, 53% of the Moon is Illuminated
Apr 29
First Quarter
May 5
Full
May 12
Last Quarter
May 20
New
May 28
First Quarter

Hourly Weather History & Observations

Time (EDT) Temp. Dew Point Humidity Pressure Visibility Wind Dir Wind Speed Gust Speed Precip Events Conditions
12:53 AM 48.9 °F 42.1 °F 77% 30.20 in 10.0 mi NW 4.6 mph - 0.00 in Rain Light Rain
1:53 AM 48.9 °F 43.0 °F 80% 30.15 in 10.0 mi Calm Calm - 0.10 in   Partly Cloudy
2:04 AM 48.2 °F 42.8 °F 82% 30.17 in 6.0 mi North 5.8 mph - N/A   Haze
2:53 AM 48.9 °F 44.1 °F 83% 30.14 in 8.0 mi North 3.5 mph - N/A   Overcast
3:16 AM 48.2 °F 42.8 °F 82% 30.14 in 8.0 mi ENE 4.6 mph - N/A   Overcast
3:28 AM 48.2 °F 44.6 °F 87% 30.15 in 7.0 mi Calm Calm - N/A   Overcast
3:53 AM 48.9 °F 44.1 °F 83% 30.17 in 7.0 mi Calm Calm - N/A   Overcast
4:53 AM 48.9 °F 43.0 °F 80% 30.18 in 7.0 mi ENE 4.6 mph - N/A   Overcast
5:53 AM 48.9 °F 44.1 °F 83% 30.17 in 6.0 mi NE 9.2 mph - N/A   Haze
6:10 AM 48.2 °F 44.6 °F 87% 30.19 in 6.0 mi NE 4.6 mph - N/A   Haze
6:45 AM 48.2 °F 44.6 °F 87% 30.20 in 7.0 mi Calm Calm - N/A   Overcast
6:53 AM 48.9 °F 43.0 °F 80% 30.20 in 7.0 mi East 3.5 mph - N/A   Overcast
7:10 AM 48.2 °F 42.8 °F 82% 30.20 in 8.0 mi Calm Calm - N/A   Overcast
7:18 AM 48.2 °F 42.8 °F 82% 30.20 in 9.0 mi Calm Calm - N/A   Overcast
7:39 AM 50.0 °F 42.8 °F 76% 30.21 in 9.0 mi Calm Calm - N/A   Overcast
7:53 AM 50.0 °F 43.0 °F 77% 30.20 in 10.0 mi Calm Calm - N/A   Overcast
8:21 AM 50.0 °F 44.6 °F 82% 30.23 in 10.0 mi SSW 4.6 mph - N/A   Overcast
8:53 AM 51.1 °F 45.0 °F 80% 30.23 in 10.0 mi Calm Calm - N/A   Overcast
9:53 AM 53.1 °F 45.0 °F 74% 30.26 in 10.0 mi Calm Calm - N/A   Overcast
10:19 AM 53.6 °F 44.6 °F 72% 30.26 in 10.0 mi Calm Calm - N/A   Overcast
10:53 AM 57.0 °F 46.0 °F 67% 30.26 in 10.0 mi Variable 3.5 mph - N/A   Partly Cloudy
11:53 AM 62.1 °F 46.9 °F 58% 30.25 in 10.0 mi East 4.6 mph - N/A   Clear
12:53 PM 64.4 °F 44.6 °F 49% 30.22 in 10.0 mi Variable 4.6 mph - N/A   Clear
1:53 PM 68.0 °F 46.0 °F 45% 30.20 in 10.0 mi Calm Calm - N/A   Clear
2:53 PM 70.0 °F 46.9 °F 44% 30.17 in 10.0 mi Calm Calm - N/A   Clear
3:53 PM 71.1 °F 46.0 °F 41% 30.14 in 10.0 mi Calm Calm - N/A   Clear
4:53 PM 73.0 °F 46.0 °F 38% 30.13 in 10.0 mi Calm Calm - N/A   Clear
5:53 PM 73.9 °F 45.0 °F 35% 30.12 in 10.0 mi South 4.6 mph - N/A   Clear
6:53 PM 72.0 °F 48.0 °F 43% 30.13 in 10.0 mi South 6.9 mph - N/A   Clear
7:53 PM 69.1 °F 48.9 °F 49% 30.14 in 10.0 mi SSW 4.6 mph - N/A   Clear
8:53 PM 66.0 °F 48.9 °F 54% 30.16 in 10.0 mi SSW 3.5 mph - N/A   Clear
9:53 PM 60.1 °F 50.0 °F 69% 30.18 in 10.0 mi Calm Calm - N/A   Clear
10:53 PM 59.0 °F 50.0 °F 72% 30.20 in 10.0 mi Calm Calm - N/A   Clear
11:53 PM 57.9 °F 50.0 °F 75% 30.20 in 10.0 mi Calm Calm - N/A   Clear